Haleyville, AL

4:56 AM CST on November 19, 2017 (GMT -0600)
Haleyville

Weather History for K1M4 - October, 2014

Change the Weather History Date:

Friday, October 17, 2014

  Actual Average (KJFX) Record (KJFX)
Temperature  
Mean Temperature 62 °F -  
Max Temperature 79 °F 73 °F 89 °F (2016)
Min Temperature 45 °F 46 °F 29 °F (1977)
Degree Days  
Heating Degree Days 3    
Growing Degree Days 12 (Base 50)    
Moisture  
Dew Point 54 °F    
Average Humidity 77    
Maximum Humidity 100    
Minimum Humidity 50    
Precipitation  
Precipitation 0.00 in - - ()
Sea Level Pressure  
Sea Level Pressure 30.00 in    
Wind  
Wind Speed 3 mph (WSW)    
Max Wind Speed 14 mph    
Max Gust Speed 18 mph    
Visibility 10 miles    
Events      
Averages and records for this station are not official NWS values.
T = Trace of Precipitation, MM = Missing Value Source: NWS Daily Summary

Daily Weather History Graph

Daily Weather History Graph

Search for Another Location

Airport or City:

Trip Planner

Search our weather history database for the weather conditions in past years. The results will help you decide how hot, cold, wet, or windy it might be!

Date:

Astronomy

Oct. 17, 2014 Rise Set
Actual Time 6:57 AM CDT 6:13 PM CDT
Civil Twilight 6:32 AM CDT 6:38 PM CDT
Nautical Twilight 6:02 AM CDT 7:08 PM CDT
Astronomical Twilight 5:33 AM CDT 7:37 PM CDT
Moon 1:15 AM CDT (10/17) 2:47 PM CDT (10/17)
Length of Visible Light 12h 06m
Length of Day
11h 16m
Waning Crescent, 32% of the Moon is Illuminated
Oct 17
Waning Crescent
Oct 23
New
Oct 30
First Quarter
Nov 6
Full
Nov 14
Last Quarter

Hourly Weather History & Observations

Time (CDT) Temp. Dew Point Humidity Pressure Visibility Wind Dir Wind Speed Gust Speed Precip Events Conditions
12:56 AM 46.9 °F 46.9 °F 100% 30.01 in 10.0 mi Calm Calm - N/A   Clear
1:56 AM 45.9 °F 45.9 °F 100% 30.00 in 10.0 mi Calm Calm - N/A   Clear
2:56 AM 45.9 °F 45.9 °F 100% 30.00 in 10.0 mi Calm Calm - N/A   Clear
3:56 AM 45.9 °F 45.9 °F 100% 30.00 in 10.0 mi Calm Calm - N/A   Clear
4:56 AM 46.9 °F 46.9 °F 100% 30.01 in 10.0 mi Calm Calm - N/A   Clear
5:56 AM 48.9 °F 45.9 °F 89% 30.01 in 10.0 mi Calm Calm - N/A   Clear
6:56 AM 50.9 °F 45.9 °F 83% 30.01 in 10.0 mi Calm Calm - N/A   Clear
7:56 AM 54.9 °F 47.8 °F 77% 30.03 in 10.0 mi Calm Calm - N/A   Clear
8:56 AM 61.0 °F 50.9 °F 69% 30.03 in 10.0 mi SSW 8.1 mph - N/A   Clear
9:56 AM 65.8 °F 54.0 °F 65% 30.03 in 10.0 mi WSW 10.4 mph - N/A   Clear
10:56 AM 70.0 °F 56.8 °F 63% 30.03 in 10.0 mi WSW 10.4 mph - N/A   Clear
11:56 AM 73.9 °F 56.8 °F 55% 30.01 in 10.0 mi SW 11.5 mph 18.4 mph N/A   Clear
12:56 PM 75.9 °F 57.9 °F 54% 30.00 in 10.0 mi WSW 10.4 mph 18.4 mph N/A   Clear
1:56 PM 77.9 °F 57.9 °F 50% 29.98 in 10.0 mi WSW 13.8 mph - N/A   Clear
2:56 PM 79.0 °F 59.9 °F 52% 29.97 in 10.0 mi WSW 9.2 mph - N/A   Clear
3:56 PM 79.0 °F 59.0 °F 50% 29.97 in 10.0 mi WSW 12.7 mph 17.3 mph N/A   Clear
4:56 PM 77.0 °F 59.0 °F 54% 29.97 in 10.0 mi West 10.4 mph - N/A   Clear
5:56 PM 72.9 °F 59.0 °F 62% 29.97 in 10.0 mi WSW 5.8 mph - N/A   Clear
6:56 PM 65.8 °F 59.9 °F 81% 29.98 in 10.0 mi SSW 5.8 mph - N/A   Clear
7:56 PM 63.9 °F 59.9 °F 87% 29.99 in 10.0 mi SW 4.6 mph - N/A   Clear
8:56 PM 64.9 °F 59.0 °F 81% 30.00 in 10.0 mi WSW 3.5 mph - N/A   Clear
9:56 PM 61.9 °F 57.9 °F 87% 30.01 in 10.0 mi WSW 3.5 mph - N/A   Clear
10:56 PM 61.9 °F 56.8 °F 84% 30.01 in 10.0 mi West 3.5 mph - N/A   Clear
11:56 PM 57.9 °F 56.8 °F 96% 30.01 in 10.0 mi Calm Calm - N/A   Clear